| time (UTC) | temp F | wind direction | speed MPH | gust MPH | rain 1hr in | rain 24hr in | rain mn in | humidity % | barometer mb |
| 20260905021549 | 91 | 113 | 0.0 | 0.0 | 0.00 | 0.00 | 0.00 | 52 | 1008.9 |
| 20260905020045 | 91 | 112 | 0.0 | 0.0 | 0.00 | 0.00 | 0.00 | 51 | 1008.8 |
| 20260905014544 | 92 | 136 | 0.0 | 0.0 | 0.00 | 0.00 | 0.00 | 51 | 1008.5 |
| 20260905013055 | 92 | 136 | 0.0 | 2.0 | 0.00 | 0.00 | 0.00 | 50 | 1008.6 |
| 20260905011543 | 92 | 139 | 0.0 | 4.0 | 0.00 | 0.00 | 0.00 | 49 | 1008.4 |
| 20260905010049 | 93 | 155 | 0.0 | 0.0 | 0.00 | 0.00 | 0.00 | 48 | 1008.3 |
| 20260905004542 | 93 | 155 | 0.0 | 6.0 | 0.00 | 0.00 | 0.00 | 47 | 1008.0 |
| 20260905003044 | 94 | 122 | 0.0 | 4.0 | 0.00 | 0.00 | 0.00 | 46 | 1008.0 |
| 20260905001541 | 95 | 159 | 0.0 | 2.0 | 0.00 | 0.00 | 0.00 | 46 | 1007.7 |
| 20260905000041 | 95 | 128 | 0.0 | 5.0 | 0.00 | 0.00 | 0.00 | 45 | 1007.7 |
| 20260904234545 | 95 | 134 | 0.0 | 10.0 | 0.00 | 0.00 | 0.00 | 45 | 1007.7 |
| 20260904233039 | 96 | 81 | 2.0 | 8.0 | 0.00 | 0.00 | 0.00 | 45 | 1007.7 |
| 20260904231537 | 96 | 155 | 3.0 | 12.0 | 0.00 | 0.00 | 0.00 | 45 | 1007.6 |
| 20260904230038 | 96 | 119 | 0.0 | 10.0 | 0.00 | 0.00 | 0.00 | 46 | 1007.7 |
| 20260904224541 | 98 | 140 | 0.0 | 9.0 | 0.00 | 0.00 | 0.00 | 46 | 1007.7 |
| 20260904223034 | 98 | 139 | 3.0 | 9.0 | 0.00 | 0.00 | 0.00 | 45 | 1007.8 |
| 20260904221534 | 98 | 139 | 2.0 | 10.0 | 0.00 | 0.00 | 0.00 | 45 | 1007.8 |
| 20260904220054 | 99 | 122 | 0.0 | 5.0 | 0.00 | 0.00 | 0.00 | 43 | 1007.9 |
| 20260904214537 | 98 | 144 | 1.0 | 7.0 | 0.00 | 0.00 | 0.00 | 42 | 1008.0 |
| 20260904213031 | 98 | 149 | 0.0 | 8.0 | 0.00 | 0.00 | 0.00 | 43 | 1008.1 |
| 20260904211535 | 99 | 258 | 0.0 | 3.0 | 0.00 | 0.00 | 0.00 | 42 | 1008.2 |
| 20260904210039 | 99 | 132 | 0.0 | 9.0 | 0.00 | 0.00 | 0.00 | 43 | 1008.5 |
| 20260904204525 | 99 | 159 | 0.0 | 4.0 | 0.00 | 0.00 | 0.00 | 44 | 1008.7 |
| 20260904203036 | 98 | 127 | 2.0 | 10.0 | 0.00 | 0.00 | 0.00 | 44 | 1008.9 |
| 20260904201521 | 99 | 104 | 2.0 | 8.0 | 0.00 | 0.00 | 0.00 | 44 | 1009.0 |
| 20260904200020 | 98 | 267 | 2.0 | 8.0 | 0.00 | 0.00 | 0.00 | 43 | 1009.1 |
| 20260904194521 | 97 | 157 | 0.0 | 6.0 | 0.00 | 0.00 | 0.00 | 45 | 1009.4 |
| 20260904193011 | 97 | 156 | 1.0 | 8.0 | 0.00 | 0.00 | 0.00 | 45 | 1009.8 |
| 20260904191511 | 97 | 134 | 1.0 | 10.0 | 0.00 | 0.00 | 0.00 | 45 | 1010.0 |
| 20260904190009 | 97 | 122 | 2.0 | 8.0 | 0.00 | 0.00 | 0.00 | 46 | 1010.0 |
| 20260904184505 | 96 | 144 | 0.0 | 4.0 | 0.00 | 0.00 | 0.00 | 48 | 1010.3 |
| 20260904183002 | 95 | 126 | 1.0 | 9.0 | 0.00 | 0.00 | 0.00 | 47 | 1010.5 |
| 20260904181601 | 94 | 132 | 0.0 | 10.0 | 0.00 | 0.00 | 0.00 | 51 | 1010.5 |
| 20260904180119 | 94 | 197 | 0.0 | 9.0 | 0.00 | 0.00 | 0.00 | 50 | 1010.9 |
| 20260904174607 | 94 | 215 | 0.0 | 5.0 | 0.00 | 0.00 | 0.00 | 53 | 1011.1 |
| 20260904173052 | 93 | 218 | 0.0 | 8.0 | 0.00 | 0.00 | 0.00 | 55 | 1011.3 |
| 20260904171553 | 92 | 261 | 0.0 | 8.0 | 0.00 | 0.00 | 0.00 | 56 | 1011.5 |
| 20260904170051 | 92 | 107 | 0.0 | 5.0 | 0.00 | 0.00 | 0.00 | 57 | 1011.6 |
| 20260904164546 | 92 | 144 | 3.0 | 10.0 | 0.00 | 0.00 | 0.00 | 59 | 1011.7 |
| 20260904163043 | 91 | 250 | 0.0 | 3.0 | 0.00 | 0.00 | 0.00 | 61 | 1011.7 |
| 20260904161541 | 90 | 252 | 0.0 | 5.0 | 0.00 | 0.00 | 0.00 | 64 | 1011.9 |
| 20260904160036 | 89 | 265 | 1.0 | 3.0 | 0.00 | 0.00 | 0.00 | 64 | 1011.8 |
| 20260904154533 | 88 | 155 | 1.0 | 7.0 | 0.00 | 0.00 | 0.00 | 67 | 1011.8 |
| 20260904153029 | 87 | 248 | 0.0 | 6.0 | 0.00 | 0.00 | 0.00 | 71 | 1011.6 |
| 20260904151525 | 86 | 266 | 1.0 | 8.0 | 0.00 | 0.00 | 0.00 | 74 | 1011.7 |
| 20260904150031 | 85 | 266 | 1.0 | 6.0 | 0.00 | 0.00 | 0.00 | 77 | 1011.7 |
| 20260904144519 | 83 | 249 | 1.0 | 7.0 | 0.00 | 0.00 | 0.00 | 80 | 1011.7 |
| 20260904143018 | 83 | 154 | 0.0 | 7.0 | 0.00 | 0.00 | 0.00 | 82 | 1011.8 |
| 20260904141525 | 81 | 117 | 0.0 | 7.0 | 0.00 | 0.00 | 0.00 | 85 | 1011.8 |
| 20260904140017 | 80 | 255 | 1.0 | 6.0 | 0.00 | 0.00 | 0.00 | 86 | 1011.7 |
| 20260904134506 | 79 | 108 | 0.0 | 7.0 | 0.00 | 0.00 | 0.00 | 88 | 1011.6 |
| 20260904133008 | 78 | 140 | 0.0 | 1.0 | 0.00 | 0.00 | 0.00 | 89 | 1011.4 |
| 20260904131503 | 0 | 0.0 | 0.0 | 0.00 | 0.00 | 0.00 | 1011.3 | ||
| 20260904130059 | 0 | 0.0 | 0.0 | 0.00 | 0.00 | 0.00 | 1011.1 | ||
| 20260904124603 | 0 | 0.0 | 0.0 | 0.00 | 0.00 | 0.00 | 1011.0 | ||
| 20260904123050 | 0 | 0.0 | 0.0 | 0.00 | 0.00 | 0.00 | 1011.0 | ||
| 20260904121546 | 0 | 0.0 | 0.0 | 0.00 | 0.00 | 0.00 | 1011.0 | ||
| 20260904120049 | 0 | 0.0 | 0.0 | 0.00 | 0.00 | 0.00 | 1010.7 | ||
| 20260904114543 | 0 | 0.0 | 0.0 | 0.00 | 0.00 | 0.00 | 1010.6 | ||
| 20260904113034 | 76 | 148 | 0.0 | 0.0 | 0.00 | 0.00 | 0.00 | 87 | 1010.6 |
| 20260904111531 | 77 | 148 | 0.0 | 0.0 | 0.00 | 0.00 | 0.00 | 87 | 1010.5 |
| 20260904110030 | 77 | 151 | 0.0 | 0.0 | 0.00 | 0.00 | 0.00 | 86 | 1010.5 |
| 20260904104527 | 77 | 134 | 0.0 | 2.0 | 0.00 | 0.00 | 0.00 | 86 | 1010.3 |
| 20260904103029 | 77 | 130 | 0.0 | 1.0 | 0.00 | 0.00 | 0.00 | 86 | 1010.1 |
| 20260904101526 | 77 | 130 | 0.0 | 0.0 | 0.00 | 0.00 | 0.00 | 85 | 1010.1 |
| 20260904100027 | 78 | 130 | 0.0 | 0.0 | 0.00 | 0.00 | 0.00 | 85 | 1010.0 |
| 20260904094538 | 78 | 130 | 0.0 | 0.0 | 0.00 | 0.00 | 0.00 | 84 | 1010.0 |
| 20260904093022 | 78 | 130 | 0.0 | 0.0 | 0.00 | 0.00 | 0.00 | 84 | 1010.1 |
| 20260904091531 | 78 | 130 | 0.0 | 0.0 | 0.00 | 0.00 | 0.00 | 83 | 1010.1 |
| 20260904090021 | 78 | 124 | 0.0 | 0.0 | 0.00 | 0.00 | 0.00 | 83 | 1010.1 |
| 20260904084521 | 78 | 124 | 0.0 | 0.0 | 0.00 | 0.00 | 0.00 | 83 | 1010.0 |
| 20260904083019 | 78 | 123 | 0.0 | 0.0 | 0.00 | 0.00 | 0.00 | 82 | 1010.0 |
| 20260904081519 | 78 | 123 | 0.0 | 0.0 | 0.00 | 0.00 | 0.00 | 82 | 1009.8 |
| 20260904080018 | 79 | 146 | 0.0 | 1.0 | 0.00 | 0.00 | 0.00 | 82 | 1009.9 |
| 20260904074516 | 79 | 151 | 0.0 | 0.0 | 0.00 | 0.00 | 0.00 | 81 | 1009.8 |
| 20260904073015 | 79 | 151 | 0.0 | 0.0 | 0.00 | 0.00 | 0.00 | 80 | 1009.9 |
| 20260904071516 | 79 | 151 | 0.0 | 0.0 | 0.00 | 0.00 | 0.00 | 80 | 1009.8 |
| 20260904070016 | 79 | 149 | 0.0 | 0.0 | 0.00 | 0.00 | 0.00 | 79 | 1010.0 |
| 20260904064515 | 80 | 149 | 0.0 | 0.0 | 0.00 | 0.00 | 0.00 | 78 | 1010.2 |
| 20260904063021 | 80 | 150 | 0.0 | 0.0 | 0.00 | 0.00 | 0.00 | 77 | 1010.2 |
| 20260904061510 | 80 | 123 | 0.0 | 1.0 | 0.00 | 0.00 | 0.00 | 76 | 1010.2 |
| 20260904060007 | 80 | 138 | 0.0 | 1.0 | 0.00 | 0.00 | 0.00 | 76 | 1010.2 |
| 20260904054506 | 80 | 190 | 0.0 | 0.0 | 0.00 | 0.00 | 0.00 | 75 | 1010.2 |
| 20260904053010 | 80 | 139 | 0.0 | 9.0 | 0.00 | 0.00 | 0.00 | 75 | 1010.1 |
| 20260904051503 | 81 | 153 | 0.0 | 6.0 | 0.00 | 0.00 | 0.00 | 74 | 1010.2 |
| 20260904050002 | 81 | 155 | 0.0 | 6.0 | 0.00 | 0.00 | 0.00 | 74 | 1010.1 |
| 20260904044501 | 81 | 115 | 0.0 | 6.0 | 0.00 | 0.00 | 0.00 | 74 | 1010.0 |
| 20260904043111 | 81 | 180 | 0.0 | 2.0 | 0.00 | 0.00 | 0.00 | 73 | 1010.0 |
| 20260904041602 | 81 | 126 | 0.0 | 3.0 | 0.00 | 0.00 | 0.00 | 72 | 1010.2 |
| 20260904034558 | 81 | 141 | 0.0 | 7.0 | 0.00 | 0.00 | 0.00 | 69 | 1010.2 |
| 20260904033058 | 82 | 135 | 0.0 | 0.0 | 0.00 | 0.00 | 0.00 | 68 | 1010.2 |
| 20260904031602 | 82 | 110 | 0.0 | 6.0 | 0.00 | 0.00 | 0.00 | 68 | 1010.1 |
| 20260904030057 | 82 | 124 | 0.0 | 1.0 | 0.00 | 0.00 | 0.00 | 67 | 1010.1 |
| 20260904024605 | 82 | 126 | 0.0 | 1.0 | 0.00 | 0.00 | 0.00 | 67 | 1009.8 |
| 20260904023056 | 83 | 136 | 0.0 | 8.0 | 0.00 | 0.00 | 0.00 | 66 | 1009.6 |